Tempur Sealy Price to Book Ratio 2006-2021 | TPX

Historical price to book ratio values for Tempur Sealy (TPX) over the last 10 years. The current price to book ratio for Tempur Sealy as of June 18, 2021 is 23.59.

Please refer to the Stock Price Adjustment Guide for more information on our historical prices.

Tempur Sealy Price/Book Ratio Historical Data
Date Stock Price Book Value per Share Price to Book Ratio
2021-06-18 37.21 23.13
2021-03-31 36.49 $1.61 22.69
2020-12-31 26.89 $2.46 10.92
2020-09-30 22.21 $2.17 10.25
2020-06-30 17.92 $1.21 14.78
2020-03-31 10.88 $1.01 10.76
2019-12-31 21.68 $1.73 12.55
2019-09-30 19.22 $1.55 12.39
2019-06-30 18.27 $1.42 12.90
2019-03-31 14.36 $1.16 12.39
2018-12-31 10.31 $1.00 10.33
2018-09-30 13.17 $0.96 13.71
2018-06-30 11.96 $0.73 16.49
2018-03-31 11.28 $0.66 17.21
2017-12-31 15.61 $0.52 30.08
2017-09-30 16.07 $0.39 41.35
2017-06-30 13.29 $0.10 131.63
2017-03-31 11.57 $-0.08 -140.06
2016-12-31 17.00 $-0.19 -88.28
2016-09-30 14.13 $0.65 21.63
2016-06-30 13.77 $0.67 20.43
2016-03-31 15.14 $1.04 14.61
2015-12-31 17.54 $1.16 15.09
2015-09-30 17.79 $1.20 14.79
2015-06-30 16.41 $1.02 16.08
2015-03-31 14.38 $0.80 18.04
2014-12-31 13.67 $0.83 16.43
2014-09-30 13.99 $0.71 19.63
2014-06-30 14.87 $0.64 23.23
2014-03-31 12.62 $0.62 20.25
2013-12-31 13.44 $0.49 27.46
2013-09-30 10.95 $0.34 32.10
2013-06-30 10.93 $0.11 98.66
2013-03-31 12.36 $0.11 108.88
2012-12-31 7.84 $0.09 83.95
2012-09-30 7.44 $-0.05 -142.58
2012-06-30 5.82 $-0.05 -114.20
2012-03-31 21.02 $0.40 53.20
2011-12-31 13.08 $0.12 108.37
2011-09-30 13.10 $0.38 34.75
2011-06-30 16.89 $0.46 36.56
2011-03-31 12.61 $0.54 23.48
2010-12-31 9.98 $0.46 21.68
2010-09-30 7.72 $0.25 31.01
2010-06-30 7.66 $0.20 38.63
2010-03-31 7.51 $0.39 19.21
2009-12-31 5.88 $0.57 10.26
2009-09-30 4.72 $0.47 10.06
2009-06-30 3.25 $0.36 8.93
2009-03-31 1.82 $0.28 6.46
2008-12-31 1.77 $0.24 7.30
2008-09-30 2.93 $0.28 10.38
2008-06-30 1.93 $0.29 6.74
2008-03-31 2.70 $0.24 11.47
2007-12-31 6.34 $0.16 39.25
2007-09-30 8.70 $0.09 92.96
2007-06-30 6.29 $0.57 11.09
2007-03-31 6.29 $0.65 9.73
2006-12-31 4.94 $0.64 7.71
2006-09-30 4.14 $0.53 7.77
2006-06-30 3.26 $0.44 7.39
2006-03-31 3.42 $0.46 7.41
Sector Industry Market Cap Revenue
Retail/Wholesale Retail - Home Furnishings $7.329B $3.677B
Tempur Sealy International, Inc. is involved in the development, manufacturing and marketing of bedding products primarily in North America and internationally. It provides mattresses, adjustable bases, pillows and other sleep and relaxation products. The company's brand portfolio includes Tempur(R), Tempur-Pedic(R), Sealy(R), Sealy Posturepedic(R), Optimum(TM) and Stearns & Foster(R). Tempur Sealy International, Inc., formerly known as Tempur-Pedic International Inc., is headquartered in Lexington, Kentucky.
Stock Name Country Market Cap PE Ratio
RH (RH) United States $13.741B 31.03
Fortune Brands Home & Security (FBHS) United States $13.272B 20.20
Williams-Sonoma (WSM) United States $11.338B 13.43
At Home Group (HOME) United States $2.413B 8.98
Lovesac (LOVE) United States $1.056B 44.27
Haverty Furniture (HVT.A) $0.730B 13.99
Haverty Furniture (HVT) United States $0.712B 13.65
Ethan Allen Interiors (ETH) United States $0.655B 17.55
Casper Sleep (CSPR) United States $0.368B 0.00
Kirkland's (KIRK) United States $0.311B 9.90